RH
88 83 83 76 78 78 71 89 76 80 79 77 72 70 70 72 71 71 71 71 78 81 90 86 85 88 83 81 82 82 78 83 85 83 81 75 79 75 74 81 88 93 92
85 84 83 78 77 79 78 81 76 82 77 75 74 71 74 74 71 70 72 85 78 78 82 88 88 88 84 84 87 97 96 91 95 92 86 86 84 81 80 77 78 77 85
84 84 82 80 76 81 80 77 78 75 77 76 72 75 74 73 73 74 75 74 73 84 86 91 86 87 98 94 93 92 88 88 89 88 86 85 82 79 79 82 82 80 81
87 86 74 82 80 78 81 89 83 78 78 76 75 78 74 75 77 77 74 75 86 88 90 73 84 80 89 88 87 85 89 87 83 83 82 81 79 80 84 82 80 79 78
96 91 73 82 82 78 84 90 86 78 84 82 82 80 79 78 79 80 78 80 81 77 75 84 84 79 86 85 83 81 79 80 80 82 81 81 81 82 82 80 79 78 77
98 99 86 91 83 82 86 93 86 83 83 86 89 89 89 86 84 82 77 82 84 78 78 81 81 83 83 80 75 74 77 79 81 81 82 82 83 81 80 79 78 77 76
99 98 100 100 94 93 90 92 87 89 97 89 92 99 98 94 90 86 79 85 89 86 85 87 86 72 62 72 76 76 76 76 76 77 79 81 81 81 79 78 77 76 76
96 86 98 100 100 100 97 95 84 94 96 90 88 86 85 80 77 80 80 88 91 91 89 77 59 48 33 28 43 68 76 73 73 74 77 80 80 80 79 77 76 75 75
82 76 74 93 98 100 100 90 81 87 92 93 85 73 91 90 78 77 82 75 65 58 56 55 53 44 24 17 10 16 39 69 70 71 73 78 79 79 77 76 75 74 74
99 75 69 57 91 92 100 89 81 80 86 91 84 65 62 67 87 88 78 78 74 70 65 63 58 44 25 17 12 10 17 55 68 68 69 76 78 78 78 75 75 74 74
100 88 74 86 89 89 99 89 82 79 84 86 83 72 66 65 65 78 92 84 82 79 74 68 58 42 28 22 18 14 16 24 54 64 66 68 77 79 77 76 75 74 74
100 100 84 74 94 83 94 86 79 77 80 82 80 65 61 65 70 71 89 87 82 77 71 66 54 42 33 28 21 16 18 16 25 51 63 66 74 74 74 77 77 76 75
100 100 98 100 96 96 79 90 77 75 76 78 78 65 54 52 54 57 68 76 77 73 67 59 54 45 40 34 27 24 22 19 18 24 58 66 70 71 73 74 75 77 77
100 100 99 100 100 96 87 89 80 72 72 73 74 66 57 50 46 44 52 63 70 69 69 64 56 49 46 40 34 33 31 26 21 22 50 66 69 69 71 73 75 77 76
95 98 100 100 99 98 91 87 84 77 74 72 70 66 60 54 49 45 42 42 58 76 76 64 58 53 50 44 39 39 35 28 23 28 46 57 64 67 68 72 74 76 76
98 98 100 100 100 97 88 82 84 82 76 74 70 65 63 58 54 51 47 44 43 50 78 58 56 56 54 47 41 41 36 29 29 35 51 62 68 70 72 72 77 79 78
99 100 99 99 99 93 89 84 81 78 79 77 74 67 64 62 58 54 54 51 47 42 59 56 55 56 56 46 44 41 36 34 35 38 45 63 63 69 73 78 82 84 82
100 100 100 100 97 93 86 74 75 76 80 81 76 74 68 65 61 56 54 54 51 46 42 54 52 56 52 47 44 41 39 40 42 45 48 59 65 72 79 86 88 84 87
100 100 100 100 94 92 90 73 67 68 71 72 75 75 74 72 64 58 53 51 52 50 42 42 53 52 48 47 45 42 43 46 48 52 51 49 51 54 69 68 79 80 66
100 100 100 99 91 78 77 73 71 69 67 65 66 69 71 73 72 68 62 57 55 47 34 39 47 51 49 49 44 44 50 50 55 53 54 51 54 51 40 44 38 37 62
99 100 100 100 88 79 82 81 75 71 71 71 69 67 68 69 68 66 60 55 52 38 34 44 53 52 51 53 50 47 48 53 55 52 46 56 54 40 39 38 38 40 79
100 100 100 100 92 88 86 91 83 76 72 71 72 72 71 69 64 58 54 50 42 31 35 46 50 53 47 44 45 47 52 63 56 55 62 55 50 43 41 42 40 42 87
100 100 100 100 99 96 90 97 96 81 74 71 68 68 64 59 52 46 41 33 22 23 20 20 30 32 36 38 52 52 56 58 63 70 76 66 55 46 42 40 39 70 92
100 100 100 100 100 97 98 98 96 86 73 70 67 64 60 50 41 32 25 24 27 25 24 29 43 60 60 50 40 44 54 69 76 79 80 77 66 61 43 40 49 62 91
100 100 100 100 100 100 100 100 99 82 73 68 64 60 54 42 33 23 27 36 41 60 59 48 38 46 43 45 52 61 68 72 73 81 86 82 83 72 43 43 56 62 47
100 100 100 100 100 100 100 100 100 98 86 75 63 56 50 37 46 32 29 38 79 74 69 68 68 61 70 78 72 69 64 65 74 82 90 79 81 82 78 54 56 51 52
Wind_Speed
29 27 29 25 23 24 25 24 24 27 28 27 24 22 21 22 21 17 13 13 14 13 15 14 14 15 14 13 13 13 13 13 12 11 10 9 10 11 11 12 12 14 14
32 30 33 29 25 26 26 28 26 28 28 27 25 22 23 23 20 17 16 16 15 14 13 14 15 14 14 12 12 15 14 13 12 12 10 9 10 10 10 11 11 11 12
35 34 36 32 30 28 28 28 28 27 28 27 25 24 25 23 22 18 17 15 15 15 15 14 16 14 14 14 12 11 10 9 8 9 8 9 9 10 10 11 11 12 12
38 38 40 38 34 32 31 30 32 30 31 29 26 25 25 24 22 19 18 17 16 16 15 13 12 12 12 9 8 9 8 9 9 9 9 9 9 9 10 10 10 11 11
40 41 42 44 40 37 35 34 35 34 33 30 28 25 24 23 22 20 17 18 16 17 16 16 16 14 12 10 10 10 9 9 9 9 9 9 9 9 10 10 11 11 11
29 29 38 41 44 41 39 35 37 34 37 34 29 25 22 21 20 19 18 19 17 17 16 15 15 13 12 10 9 9 9 8 9 8 9 9 9 9 9 9 10 10 10
36 22 22 28 41 43 44 41 39 36 29 36 31 19 15 15 17 18 18 19 18 17 17 16 14 12 10 10 10 10 9 8 7 7 8 8 8 8 9 9 9 10 10
31 28 15 22 26 31 39 42 38 30 27 38 20 14 3 3 9 15 18 18 18 17 17 15 13 10 8 8 9 10 10 8 6 6 6 7 7 7 7 8 8 9 10
26 27 28 18 29 25 32 43 44 35 27 32 34 10 3 4 7 9 15 17 18 18 16 14 13 10 9 7 7 7 7 8 6 5 5 5 6 6 7 7 8 8 8
31 30 33 37 29 33 28 36 42 37 34 33 34 14 10 17 4 3 10 18 18 18 18 17 14 12 10 8 7 6 6 7 5 5 4 3 3 5 6 6 7 7 8
28 34 32 36 48 45 37 37 37 36 35 37 34 21 20 14 13 5 3 7 16 20 19 18 15 13 12 9 7 6 6 5 4 3 3 2 1 3 5 6 7 7 7
28 34 37 34 40 47 40 41 40 38 36 35 35 30 28 10 10 6 3 4 11 15 19 19 17 15 13 11 8 6 4 3 2 1 2 2 1 3 5 6 7 8 9
24 29 34 33 43 41 49 42 44 41 38 35 37 37 34 24 24 13 9 6 5 5 12 20 19 17 15 13 10 8 5 2 1 2 2 1 1 2 4 7 8 8 9
26 28 37 37 36 43 40 42 43 45 42 40 38 39 35 28 23 21 13 15 3 2 7 7 22 21 17 15 12 10 7 4 4 3 2 0 1 3 4 5 7 7 8
28 29 31 38 37 34 39 42 41 42 40 40 41 46 40 31 24 22 17 22 15 4 7 14 11 25 21 19 16 12 8 5 4 3 3 3 2 3 5 5 6 7 8
31 32 33 33 36 34 36 41 37 41 43 42 41 45 42 35 28 23 21 21 22 13 4 10 17 22 26 21 18 13 9 6 4 3 2 2 3 3 5 6 6 8 9
32 33 38 35 36 29 31 34 35 41 41 41 41 44 43 37 31 26 23 24 24 17 7 8 16 18 26 23 20 14 10 6 5 5 4 2 4 5 5 5 7 10 12
33 37 34 35 36 32 28 30 33 36 38 38 40 39 39 36 33 30 27 26 26 24 13 14 16 20 24 23 18 13 10 7 7 6 5 5 6 5 4 6 9 12 12
31 33 33 35 34 31 29 27 30 34 36 38 40 39 40 38 34 32 30 29 28 27 22 18 13 21 23 23 18 14 11 9 9 8 8 7 7 7 8 9 10 12 15
27 31 34 34 35 30 28 27 30 32 32 34 36 39 39 39 39 37 34 32 30 28 21 21 16 25 24 22 18 16 12 10 10 9 9 7 7 8 11 11 12 12 11
30 34 31 31 33 32 31 29 29 30 32 32 33 34 36 37 38 37 36 33 31 29 25 25 20 19 18 19 19 13 12 11 8 10 10 7 8 11 10 12 12 14 13
24 26 28 29 34 31 33 27 28 30 29 30 29 29 30 32 33 31 32 30 31 32 28 21 16 20 18 17 17 15 12 7 3 6 6 7 10 10 11 11 14 15 10
18 22 27 30 36 34 29 25 26 27 27 28 29 28 25 23 25 25 23 24 25 24 26 26 28 23 19 18 18 15 12 7 5 4 6 8 8 11 11 14 15 9 5
15 20 25 28 29 32 29 29 27 27 27 27 27 27 28 28 28 28 29 28 23 20 19 16 15 12 11 13 11 9 8 5 4 6 5 4 6 11 18 16 6 5 6
12 15 19 21 24 26 26 27 28 26 25 26 26 26 28 30 32 36 37 33 27 20 14 12 12 12 11 12 11 9 7 5 3 3 4 4 3 11 17 12 4 2 19
12 11 12 15 19 21 24 27 29 29 26 27 24 25 29 34 35 35 36 36 30 24 20 17 15 13 12 12 10 7 6 7 4 2 3 3 4 5 6 9 7 21 21
Wind_Direction
199 195 185 185 189 192 189 183 174 173 168 168 167 165 159 154 150 149 153 152 147 137 134 133 127 122 120 118 112 109 105 103 95 89 80 73 64 56 50 43 41 39 35
203 197 189 187 192 196 190 187 174 171 170 169 165 164 159 156 154 155 156 151 144 148 139 136 128 126 123 127 117 109 103 96 88 81 82 68 64 61 56 49 43 31 27
206 201 193 190 191 193 195 189 180 177 175 172 167 164 161 160 157 158 161 160 154 146 144 133 133 132 120 109 105 103 95 88 84 79 79 74 70 66 58 50 42 36 31
208 204 195 193 191 193 195 189 181 177 176 174 168 166 164 165 163 163 169 165 160 151 146 154 139 145 124 114 112 107 105 97 86 80 73 67 65 64 55 41 31 27 28
210 207 198 195 193 191 193 194 182 182 179 174 168 166 166 170 170 173 175 173 163 164 160 151 149 150 128 116 111 107 98 91 85 79 77 71 64 57 50 46 39 33 26
212 203 198 195 193 190 193 193 183 184 182 173 164 163 165 168 174 179 180 179 173 170 172 174 173 161 131 119 114 105 97 88 83 78 73 66 60 56 49 40 36 31 24
213 209 206 196 188 187 190 192 182 174 164 171 155 147 157 172 177 180 183 185 182 176 182 182 182 177 162 134 116 110 102 93 84 77 75 68 58 48 40 35 29 25 22
208 201 197 191 191 187 188 185 178 166 165 172 160 134 132 145 193 187 185 187 188 187 186 187 188 184 172 159 143 130 114 102 91 86 80 73 60 47 39 31 26 20 15
198 190 195 181 196 196 191 186 181 173 169 176 171 150 144 188 141 202 196 190 189 188 189 190 187 186 181 172 160 149 130 108 98 87 78 73 59 39 30 24 20 12 9
223 215 206 198 192 212 204 190 186 181 174 176 179 183 175 143 159 153 207 203 200 201 200 197 196 192 188 180 168 155 146 126 102 86 74 63 56 39 20 14 11 4 1
224 214 213 197 185 194 209 197 189 187 184 180 183 178 159 156 146 140 162 175 207 209 208 206 202 198 192 188 178 166 159 150 121 86 54 27 19 30 10 6 357 357 356
228 214 212 209 198 190 204 200 197 193 189 188 186 186 169 163 168 146 117 137 175 202 205 204 204 203 200 194 189 183 174 166 134 66 17 355 324 4 358 354 351 349 348
214 211 214 207 201 197 193 203 198 197 193 188 189 193 194 186 179 159 127 134 152 170 203 211 208 207 204 201 198 197 198 211 272 293 337 286 297 338 350 347 347 343 342
215 207 207 205 200 196 192 198 197 200 200 195 193 199 196 198 195 189 158 150 104 148 179 182 207 208 206 208 207 208 215 234 278 286 284 263 298 326 335 344 344 336 339
225 219 207 206 207 194 190 197 197 196 196 196 199 206 204 200 200 203 209 189 152 167 205 194 186 206 205 206 209 212 222 246 268 265 242 257 293 320 318 329 333 323 327
229 221 214 203 200 201 196 194 195 193 196 198 201 208 210 206 203 203 206 204 201 171 152 184 195 195 199 202 206 211 224 237 248 242 236 258 298 316 303 312 312 320 314
225 220 220 217 210 201 205 198 199 199 197 199 204 210 212 210 205 201 203 204 203 194 140 182 196 192 193 198 199 206 218 229 232 225 232 261 292 305 312 306 308 317 311
220 216 205 202 204 200 201 205 205 206 203 204 208 210 213 209 208 206 204 205 208 210 189 159 179 178 192 191 199 205 214 223 234 229 251 256 273 287 289 294 307 310 308
218 210 201 196 198 197 199 203 212 212 209 212 211 211 214 210 208 206 208 210 212 210 207 185 158 176 180 187 190 203 215 219 224 228 251 273 277 274 281 299 306 304 304
215 206 198 195 199 200 208 210 212 214 212 213 215 214 215 212 214 214 214 214 210 200 193 180 161 164 172 183 193 201 204 214 218 237 254 272 270 291 301 297 303 309 316
222 212 199 195 198 206 217 211 211 214 215 213 214 214 216 216 218 218 211 208 201 189 179 167 150 160 166 175 192 199 207 212 227 252 262 232 261 299 298 304 310 316 319
224 213 203 199 204 209 214 220 217 211 211 213 209 209 211 212 212 212 212 206 200 185 173 159 161 158 171 182 187 195 194 202 230 222 238 264 299 304 305 310 317 314 320
232 210 202 203 200 209 222 227 221 216 209 210 207 202 197 199 200 193 189 183 182 183 184 177 170 173 171 194 201 189 198 200 213 237 275 297 304 303 306 313 316 317 320
236 212 211 213 206 213 222 209 210 211 204 206 205 199 193 183 185 178 167 163 159 159 158 152 162 183 197 181 191 200 197 199 239 256 254 261 294 302 316 326 329 337 318
257 230 218 213 212 210 213 209 201 193 189 188 189 189 189 179 177 177 165 150 145 139 139 142 142 149 150 161 174 173 175 197 246 248 232 271 289 323 321 318 331 322 325
287 252 222 218 216 208 200 203 200 188 168 167 173 179 187 180 172 173 166 156 145 149 149 147 139 142 156 158 167 187 204 199 215 282 213 285 300 355 318 305 292 316 331